Location: Black Skies Observatory
(44.7549°N, 79.7179°W)
Time: 14:14:25
(UTC-05:00)

Envisat - Pass Details

Date: 06 November 2020
Orbit: 764 x 766 km, 98.1° (Epoch: 01 December)

Event Time Altitude Azimuth Distance (km) Brightness Sun altitude
Rises 18:44:57 0° 212° (SSW) 3,220 6.8 -18.9°
Reaches altitude 10° 18:48:10 10° 234° (SW) 2,300 6.3 -19.4°
Maximum altitude 18:51:12 16° 271° (W) 1,932 6.1 -20.0°
Drops below altitude 10° 18:54:14 10° 308° (NW) 2,310 6.1 -20.5°
Sets 18:57:30 0° 330° (NNW) 3,242 6.6 -21.1°
